Retour au catalogue

STARLINK-35100

ActifCommunicationsSSO
NORAD 65542·PAYLOAD·🇺🇸 United States

Lancé Sep 6, 2025 depuis Cape Canaveral Space Force Station

Loading…

Prochains Passages (prochaines 24 heures)

TLE

FraisSource: CelesTrak SupGP

Époque: Sep 14, 2026, 14:30 UTC

1 65542C 25200Y   26257.60465278  .00090683  00000+0  28154-2 0  2575
2 65542  97.2846 324.0741 0001319  95.8928  51.6024 15.33388746    13

Suivez STARLINK-35100 en temps réel avec AllMySat

Download on the App Store